Weather in Gvasyugi

Russia / Khabarovsk Krai     47°40′10″N   136°10′51″E
temp.,
°C
wind,
m/s
gust,
m/s
humid.,
%
clouds,
%
prec.,
mm/h
press.,
hPa
HPBL,
m
26 february, fri
fri2601:00−23s01100100 0.1 102620
04:00−26sse1110094 0.1 102620
07:00−27se1110084 0.0 102720
10:00−21s119691 0.0 1027173
13:00−15sw1188100 0.1 1027543
16:00−14w2388100 0.3 1027703
19:00−20nw129898 0.1 103021
22:00−24ne0010089 0.1 103320
27 february, sat
sat2701:00−25se1110053 0.0 103520
04:00−25ese1110050 0.0 103620
07:00−26ese119910 0.0 103721
10:00−19se22947 0.0 1036147
13:00−11sse138611 0.0 1033350
16:00−9s238556 0.0 1029458
19:00−11ese129198 0.0 102726
22:00−11se229399 0.0 102543
28 february, sun
sun2801:00−9sse2986100 0.0 1022309
04:00−7s31591100 0.1 1020712
07:00−7ssw31396100 1.0 1019745
10:00−5ssw41196100 3.3 1017772
13:00−3wsw51097100 2.4 1017853
16:00−5w41092100 3.7 1017813
19:00−9w2896100 0.2 1021595
22:00−15wsw2594100 0.2 1023181
1 march, mon
mon101:00−17sw2299100 0.1 102533
04:00−21sw22100100 0.1 102836
07:00−24ssw2210099 0.1 103044
10:00−21ssw249895 0.1 1031277
13:00−16wsw477768 0.0 1031936
16:00−16w478134 0.0 1031932
19:00−22w229222 0.0 103220
22:00−26s119111 0.0 103420
2 march, tue
tue201:00−27se119669 0.0 103421
04:00−28se119858 0.0 103421
07:00−28ese119991 0.0 103420
10:00−21s119454 0.0 1033185
13:00−16wnw137358 0.0 1031993
16:00−16nnw247535 0.0 1029901
19:00−22n12902 0.0 103120
22:00−25ene11951 0.0 103220